Terug naar catalogus

STARLINK-35530

ActiefCommunicatieVLEO
NORAD 65921·PAYLOAD·🇺🇸 United States

Gelanceerd Oct 8, 2025 vanaf Vandenberg Space Force Base

Loading…

Volgende Passages (komende 24 uur)

TLE

VersSource: CelesTrak SupGP

Epoch: Sep 15, 2026, 03:40 UTC

1 65921C 25225M   26258.15326389  .00072717  00000+0  21483-2 0  2580
2 65921  53.1597   2.8046 0001260  97.0842 341.3627 15.34356485    15

Volg STARLINK-35530 in realtime met AllMySat

Download on the App Store